{"data":{"norad_id":67853,"intl_designator":"2026-034D","name":"STARLINK-36785","alt_names":[],"object_type":"PAYLOAD","status":"ACTIVE","operator":null,"country":"US","launch_date":"2026-02-20","launch_site_code":"AFETR","launch_vehicle":null,"mission":null,"orbit_class":"UNKNOWN","rcs_meters":null,"size_class":null,"mass_kg":null,"dimensions":null,"purposes":["comms"],"wikipedia_slug":null,"has_3d_model":false,"image_url":null,"decayed_at":null,"tle_current":{"epoch":"2026-09-19T22:27:29.427264Z","epoch_age_seconds":115250,"freshness":"FRESH","line1":"1 67853U 26034D   26262.93575726  .00016366  00000+0  49424-3 0  9993","line2":"2 67853  53.1577  20.0014 0001951  81.8898 278.2326 15.34413121 33803","mean_motion":15.34413121,"eccentricity":0.0001951,"inclination_deg":53.1577,"raan_deg":20.0014,"arg_perigee_deg":81.8898,"mean_anomaly_deg":278.2326,"bstar":0.00049424,"rev_number":3380,"period_min":93.84695557488,"perigee_km":461.32960178555,"apogee_km":463.99888243022,"semimajor_km":6840.8012421079,"source":"CELESTRAK","updated_at":"2026-09-20T09:00:43.673880Z"}}}